{"data":{"norad_id":68599,"epoch":"2026-09-19T22:15:48.655008Z","epoch_age_seconds":115848,"freshness":"FRESH","line1":"1 68599U 26072AC  26262.92764647  .00001432  00000+0  23365-3 0  9998","line2":"2 68599  51.9006  98.1982 0000664  34.0017 326.0986 14.76617257 25689","mean_motion":14.76617257,"eccentricity":6.64e-5,"inclination_deg":51.9006,"raan_deg":98.1982,"arg_perigee_deg":34.0017,"mean_anomaly_deg":326.0986,"bstar":0.00023365,"rev_number":2568,"period_min":97.52019307465,"perigee_km":639.55618385798,"apogee_km":640.48819539836,"semimajor_km":7018.1591896282,"source":"CELESTRAK","updated_at":"2026-09-20T09:00:24.355141Z"}}